Weather History for PHNL - October, 2012

Change the Weather History Date:

Saturday, October 20, 2012

  Actual Average Record
Temperature  
Mean Temperature 81 °F 80 °F  
Max Temperature 87 °F 86 °F 91 °F (2009)
Min Temperature 75 °F 73 °F 64 °F (1981)
Degree Days  
Heating Degree Days 0 0  
Month to date heating degree days 0 0  
Since 1 July heating degree days 0 0  
Cooling Degree Days 16 15  
Month to date cooling degree days 295 309  
Year to date cooling degree days 3705 3788  
Growing Degree Days 30 (Base 50)    
Moisture  
Dew Point 65 °F    
Average Humidity 60    
Maximum Humidity 74    
Minimum Humidity 45    
Precipitation  
Precipitation 0.00 in 0.06 in 3.09 in (1985)
Month to date precipitation 0.02 1.02  
Year to date precipitation 8.30 10.62  
Snow  
Snow 0.00 in - - ()
Month to date snowfall 0.0  
Since 1 July snowfall 0.0  
Since 1 September snowfall 0.0  
Snow Depth 0.00 in    
Sea Level Pressure  
Sea Level Pressure 29.96 in    
Wind  
Wind Speed 12 mph (ENE)    
Max Wind Speed 20 mph    
Max Gust Speed 26 mph    
Visibility 10 miles    
Events      
T = Trace of Precipitation, MM = Missing Value Source: NWS Daily Summary

Daily Weather History Graph

Daily Weather History Graph

Search for Another Location

Airport or City:

Trip Planner

Search our weather history database for the weather conditions in past years. The results will help you decide how hot, cold, wet, or windy it might be!

Date:

Astronomy

Oct. 20, 2012 Rise Set
Actual Time 6:29 AM HST 6:02 PM HST
Civil Twilight 6:06 AM HST 6:25 PM HST
Nautical Twilight 5:40 AM HST 6:51 PM HST
Astronomical Twilight 5:15 AM HST 7:17 PM HST
Moon 11:54 AM HST (10/20) 11:18 PM HST (10/20)
Length of Visible Light 12h 18m
Length of Day
11h 33m
Waxing Crescent, 36% of the Moon is Illuminated
Oct 20
Waxing Crescent
Oct 21
First Quarter
Oct 29
Full
Nov 6
Last Quarter
Nov 13
New

Hourly Weather History & Observations

Time (HST) Temp. Heat Index Dew Point Humidity Pressure Visibility Wind Dir Wind Speed Gust Speed Precip Events Conditions
12:53 AM 77.0 °F - 64.0 °F 64% 29.98 in 10.0 mi ENE 9.2 mph - N/A   Scattered Clouds
1:53 AM 75.9 °F - 64.0 °F 67% 29.98 in 10.0 mi NE 9.2 mph - N/A   Partly Cloudy
2:53 AM 75.9 °F - 64.9 °F 69% 29.95 in 10.0 mi NE 12.7 mph - N/A   Partly Cloudy
3:53 AM 75.9 °F - 66.9 °F 74% 29.95 in 10.0 mi ENE 5.8 mph - N/A   Scattered Clouds
4:53 AM 77.0 °F - 66.0 °F 69% 29.94 in 10.0 mi ENE 11.5 mph - N/A   Mostly Cloudy
5:53 AM 75.9 °F - 66.9 °F 74% 29.95 in 10.0 mi ENE 8.1 mph - N/A   Partly Cloudy
6:53 AM 75.9 °F - 66.0 °F 71% 29.96 in 10.0 mi ENE 10.4 mph - N/A   Scattered Clouds
7:53 AM 78.1 °F - 66.9 °F 68% 29.97 in 10.0 mi NE 10.4 mph 16.1 mph N/A   Scattered Clouds
8:53 AM 81.0 °F 83.3 °F 66.9 °F 62% 29.98 in 10.0 mi ENE 6.9 mph - N/A   Mostly Cloudy
9:53 AM 82.0 °F 84.5 °F 66.9 °F 60% 29.98 in 10.0 mi East 9.2 mph - N/A   Mostly Cloudy
10:53 AM 84.0 °F 85.4 °F 64.0 °F 51% 29.97 in 10.0 mi NE 15.0 mph 20.7 mph N/A   Mostly Cloudy
11:53 AM 86.0 °F 86.8 °F 63.0 °F 46% 29.95 in 10.0 mi ENE 12.7 mph 21.9 mph N/A   Scattered Clouds
12:53 PM 86.0 °F 87.3 °F 64.0 °F 48% 29.93 in 10.0 mi NE 19.6 mph 26.5 mph N/A   Scattered Clouds
1:53 PM 86.0 °F 87.3 °F 64.0 °F 48% 29.91 in 10.0 mi ENE 16.1 mph 20.7 mph N/A   Scattered Clouds
2:53 PM 84.9 °F 86.6 °F 64.9 °F 51% 29.91 in 10.0 mi NE 18.4 mph 24.2 mph N/A   Scattered Clouds
3:53 PM 84.0 °F 85.4 °F 64.0 °F 51% 29.91 in 10.0 mi ENE 17.3 mph 23.0 mph N/A   Scattered Clouds
4:53 PM 82.9 °F 84.6 °F 64.9 °F 54% 29.93 in 10.0 mi ENE 15.0 mph - N/A   Scattered Clouds
5:53 PM 80.1 °F 82.1 °F 66.0 °F 62% 29.95 in 10.0 mi ENE 15.0 mph - N/A   Scattered Clouds
6:53 PM 79.0 °F - 64.9 °F 62% 29.97 in 10.0 mi ENE 15.0 mph - N/A   Scattered Clouds
7:53 PM 78.1 °F - 66.0 °F 66% 29.98 in 10.0 mi ENE 15.0 mph - N/A   Scattered Clouds
8:53 PM 78.1 °F - 66.9 °F 68% 29.99 in 10.0 mi ENE 9.2 mph - N/A   Scattered Clouds
9:53 PM 77.0 °F - 68.0 °F 74% 29.99 in 10.0 mi ENE 10.4 mph - N/A   Scattered Clouds
10:53 PM 77.0 °F - 66.9 °F 71% 29.99 in 10.0 mi East 8.1 mph - N/A   Scattered Clouds
11:53 PM 77.0 °F - 66.0 °F 69% 29.99 in 10.0 mi ENE 8.1 mph - N/A   Partly Cloudy